Regional Weather Roundup
Issued by NWS Lake Charles, LA

Home | Current Version | Previous Version | Text Only | Print | Product List | Glossary On
Versions: 1 2 3 4 5 6 7 8 9 10 11 12 13 14 15 16 17 18 19 20 21 22 23 24 25 26 27 28 29 30 31 32 33 34 35 36 37 38 39 40 41 42 43 44 45 46 47 48 49 50
000
ASUS44 KLCH 262110
RWRLCH
RWRLCH
REGIONAL WEATHER ROUNDUP
NATIONAL WEATHER SERVICE LAKE CHARLES LA
400 PM CDT SUN APR 26 2015

Note: "fair" indicates few or no clouds below 12,000 feet with no
significant weather and/or obstructions to visibility.


ACROSS SOUTHEAST TEXAS

CITY           SKY/WX    TMP DP  RH WIND       PRES   REMARKS
BEAUMONT       PTSUNNY   83  72  69 SE10      29.68F
BEAUMONT CITY    N/A     82  72  71 E8        29.69F
ORANGE         MOCLDY    80  69  68 E7        29.70F
JASPER         CLOUDY    80  72  76 SE7       29.69F
$$

ACROSS CENTRAL LOUISIANA

CITY           SKY/WX    TMP DP  RH WIND       PRES   REMARKS
LEESVILLE      CLOUDY    80  69  70 E6        29.69F
FULLERTON        N/A     82  70  66 CALM      29.68F
ALEXANDRIA INT CLOUDY    81  71  71 SE9       29.69F
ESLER FIELD    CLOUDY    82  69  64 SE6       29.71F
DERIDDER         N/A     80  69  69 E5        29.72F
OAKDALE        CLOUDY    80  70  71 SE3       29.71F
OPELOUSAS        N/A     77  71  80 E3        29.71F
$$

ACROSS SOUTHWEST AND SOUTH CENTRAL LOUISIANA

CITY           SKY/WX    TMP DP  RH WIND       PRES   REMARKS
SULPHUR        CLOUDY    81  74  81 E3        29.71F HAZE
LAKE CHARLES   CLOUDY    80  72  76 E7        29.70F
CHENNAULT INT  NOT AVBL
CAMERON PHI    MOCLDY    79  73  83 SE9       29.73S HAZE
DEQUINCY         N/A     82  71  71 E5        29.70F
JENNINGS         N/A     80  74  82 N7        29.70F
LAFAYETTE      PTSUNNY   85  70  60 CALM      29.70F
NEW IBERIA     PTSUNNY   87  70  56 SE13      29.69F
ABBEVILLE        N/A     83  71  65 SE9       29.69F
PATTERSON      CLOUDY    82  72  69 CALM      29.73F
SALT POINT       N/A     80  73  79 CALM      29.70F
$$

SELECTED SITES ACROSS THE REGION

CITY           SKY/WX    TMP DP  RH WIND       PRES   REMARKS
HOUSTON BUSH   PTSUNNY   85  71  63 SE13      29.65F
HOUSTON HOBBY  PTSUNNY   82  73  74 SE10      29.65F
GALVESTON      CLOUDY    78  75  90 E10       29.68F
COLLEGE STAT   PTSUNNY   82  69  64 SE10      29.64F
CONROE         PTSUNNY   81  70  69 SE10      29.65F
HUNTSVILLE     PTSUNNY   83  67  58 S12G20    29.64R
LUFKIN         CLOUDY    84  71  65 E10       29.63F
SHREVEPORT     PTSUNNY   89  56  32 S7        29.68F
MONROE         PTSUNNY   88  63  43 NE3       29.72F
NATCHEZ MS     PTSUNNY   84  64  51 CALM      29.73F
BATON ROUGE    CLOUDY    81  68  64 NE6       29.72F
N.O. INTL ARPT PTSUNNY   83  71  67 VRB5      29.73F
SLIDELL        CLOUDY    82  69  64 SW3       29.73F
$$

MARINE REPORTS

STATION/POSITION TIME  TEMP    WIND        PRES    VSBY  WAVE
                       AIR SEA DIR/SP/G                  HT/PER
                 (UTC) (F)     (DEG/KT/KT) (MB)    (MI)  (FT/S)
BUOY 30 S HIGH I 2050   75 74  100/  8/  8 1004.3F         3/ 8
SEA RIM ST PARK  2100   76     120/  8/ 10 1006.1F
PORT ARTHUR      2006      74   40/  2/  8 1006.0F
SABINE PASS N    2000   78 75  120/  7/  9 1006.1R
TEXAS POINT      NOT AVBL
CALCASIEU PASS   2000   78 77  150/ 10/ 15   N/A
LK CHARLES BEACH 2000   78 73              1006.5F
MARSH ISLAND     NOT AVBL
FRESH WATER LOCK 2000   78 79  110/  3/  6 1006.7F
AMERADA PASS     2000   81 72   30/  1/  3 1006.8F
$$


USA.gov is the U.S. government's official web portal to all federal, state and local government web resources and services.